Las Vegas, NM

11:45 PM MDT on July 21, 2017 (GMT -0600)
Las Vegas Municipal

Weather History for KLVS - August, 2013

Change the Weather History Date:

Sunday, August 11, 2013

  Actual Average Record
Temperature  
Mean Temperature 64 °F -  
Max Temperature 75 °F 78 °F 91 °F (1956)
Min Temperature 53 °F 52 °F 43 °F (1951)
Degree Days  
Heating Degree Days 1    
Growing Degree Days 14 (Base 50)    
Moisture  
Dew Point 47 °F    
Average Humidity 56    
Maximum Humidity 83    
Minimum Humidity 35    
Precipitation  
Precipitation 0.00 in - - ()
Sea Level Pressure  
Sea Level Pressure 30.04 in    
Wind  
Wind Speed 10 mph (SSW)    
Max Wind Speed 18 mph    
Max Gust Speed 25 mph    
Visibility 10 miles    
Events      
Averages and records for this station are not official NWS values.
T = Trace of Precipitation, MM = Missing Value Source: NWS Daily Summary

Daily Weather History Graph

Daily Weather History Graph

Search for Another Location

Airport or City:

Trip Planner

Search our weather history database for the weather conditions in past years. The results will help you decide how hot, cold, wet, or windy it might be!

Date:

Astronomy

Aug. 11, 2013 Rise Set
Actual Time 6:16 AM MDT 7:54 PM MDT
Civil Twilight 5:49 AM MDT 8:21 PM MDT
Nautical Twilight 5:16 AM MDT 8:54 PM MDT
Astronomical Twilight 4:41 AM MDT 9:28 PM MDT
Moon 10:55 AM MDT (8/11) 10:24 PM MDT (8/11)
Length of Visible Light 14h 32m
Length of Day
13h 37m
Waxing Crescent, 22% of the Moon is Illuminated
Aug 11
Waxing Crescent
Aug 14
First Quarter
Aug 20
Full
Aug 28
Last Quarter
Sep 5
New

Hourly Weather History & Observations

Time (MDT) Temp. Dew Point Humidity Pressure Visibility Wind Dir Wind Speed Gust Speed Precip Events Conditions
12:53 AM 60.1 °F 46.0 °F 60% 30.07 in 10.0 mi West 5.8 mph - 0.00 in   Overcast
1:53 AM 62.1 °F 43.0 °F 50% 30.03 in 10.0 mi WSW 3.5 mph - N/A   Partly Cloudy
2:53 AM 57.0 °F 46.9 °F 69% 30.05 in 10.0 mi South 10.4 mph - N/A   Mostly Cloudy
3:53 AM 55.0 °F 48.0 °F 77% 30.05 in 10.0 mi South 15.0 mph - N/A   Clear
4:53 AM 55.0 °F 46.9 °F 74% 30.04 in 10.0 mi South 12.7 mph - N/A   Clear
5:53 AM 53.1 °F 46.9 °F 80% 30.07 in 10.0 mi SSW 8.1 mph - N/A   Clear
6:53 AM 55.0 °F 48.9 °F 80% 30.08 in 10.0 mi South 6.9 mph - N/A   Partly Cloudy
7:53 AM 55.0 °F 50.0 °F 83% 30.10 in 10.0 mi SW 5.8 mph - N/A   Clear
8:53 AM 60.1 °F 50.0 °F 69% 30.12 in 10.0 mi SW 6.9 mph - N/A   Clear
9:53 AM 64.9 °F 48.9 °F 56% 30.10 in 10.0 mi SW 10.4 mph - N/A   Clear
10:53 AM 68.0 °F 46.0 °F 45% 30.08 in 10.0 mi SSW 11.5 mph - N/A   Clear
11:53 AM 71.1 °F 46.9 °F 42% 30.06 in 10.0 mi South 17.3 mph 25.3 mph N/A   Clear
12:53 PM 70.0 °F 46.0 °F 42% 30.04 in 10.0 mi SSW 13.8 mph 21.9 mph N/A   Clear
1:53 PM 72.0 °F 46.9 °F 41% 30.01 in 10.0 mi SSW 16.1 mph - N/A   Clear
2:53 PM 73.9 °F 45.0 °F 35% 30.01 in 10.0 mi SSW 13.8 mph 24.2 mph N/A   Clear
3:53 PM 69.1 °F 50.0 °F 51% 30.02 in 10.0 mi WSW 18.4 mph - N/A   Mostly Cloudy
4:53 PM 73.9 °F 48.0 °F 40% 29.99 in 10.0 mi SW 12.7 mph - N/A   Clear
5:53 PM 75.0 °F 46.9 °F 37% 29.98 in 10.0 mi SSW 16.1 mph - N/A   Clear
6:53 PM 73.9 °F 46.0 °F 37% 29.96 in 10.0 mi SW 13.8 mph - N/A   Clear
7:53 PM 68.0 °F 46.9 °F 47% 30.00 in 10.0 mi SSW 9.2 mph - N/A   Clear
8:53 PM 66.0 °F 46.9 °F 50% 30.01 in 10.0 mi South 12.7 mph - N/A   Clear
9:53 PM 63.0 °F 48.0 °F 58% 30.03 in 10.0 mi South 12.7 mph - N/A   Clear
10:53 PM 63.0 °F 48.9 °F 60% 30.01 in 10.0 mi SSW 12.7 mph - N/A   Clear
11:53 PM 62.1 °F 50.0 °F 65% 30.02 in 10.0 mi South 11.5 mph - N/A   Clear